User: anonymous   Login
Location: Radomski Observatory
(40.2854°N, 79.5145°W)
Time: 16:01:58
(UTC-04:00)
Language:

Uosat F - Orbit

View from above orbital plane
View from above orbital plane
View from above satellite
View from above satellite

Ground track
Ground track

The orbit data is extracted from the following two-line orbital elements,

1 21575U 91050B   15209.88381098  .00000064  00000-0  34588-4 0  9999
2 21575 098.7417 198.9232 0007140 182.5461 236.0955 14.40651704262036
Epoch (UTC): 28 July 2015 21:12:41
Eccentricity: 0.0007140
inclination: 98.7417°
perigee height: 751 km
apogee height: 761 km
right ascension of ascending node: 198.9232°
argument of perigee: 182.5461°
revolutions per day: 14.40651704
mean anomaly at epoch: 236.0955°
orbit number at epoch: 26203

The dashed part of the orbit path shows where the satellite is in the earth's shadow,  

DLR